Regional Weather Roundup
Issued by NWS Grand Forks, ND

Home | Current Version | Previous Version | Graphics & Text | Print | Product List | Glossary On
Versions: 1 2 3 4 5 6 7 8 9 10 11 12 13 14 15 16 17 18 19 20 21 22 23 24 25 26 27 28 29 30 31 32 33 34 35 36 37 38 39 40 41 42 43 44 45 46 47 48 49 50
000
ASUS43 KFGF 231731
RWRFGF
PRAIRIE TO PINES  WEATHER ROUNDUP
NATIONAL WEATHER SERVICE EASTERN NORTH DAKOTA/GRAND FORKS ND
1200 PM CDT MON MAY 23 2016

 **SATELLITE DATA USED TO AUGMENT SKY COVER AT AUTOMATED STATIONS**
 *****  WEATHER ACROSS EASTERN NORTH DAKOTA  *****

CITY           SKY/WX    TMP DP  RH WIND       PRES   REMARKS
GRAND FORKS    MOSUNNY   75  60  59 W12       29.62R
GRAND FRKS AFB SUNNY     75  57  53 W12       29.63R
DEVILS LAKE    SUNNY     72  51  47 W14       29.65R
FARGO          CLOUDY    78  55  44 W15G22    29.65R
WAHPETON ARPT  CLOUDY    75  50  41 SW10G20   29.68S
$$

 ***** WEATHER ACROSS CENTRAL AND WESTERN NORTH DAKOTA  *****

CITY           SKY/WX    TMP DP  RH WIND       PRES   REMARKS
BISMARCK       SUNNY     75  41  29 W10       29.68S
MINOT          SUNNY     78  34  20 SW16G28   29.61S
JAMESTOWN      SUNNY     73  55  53 W13       29.66S
MINOT AFB      SUNNY     73  36  25 SW17G25   29.60S
GARRISON         N/A     73  38  27 SW18G24   29.65S
WILLISTON      MOSUNNY   70  33  25 SW17G24   29.63F
DICKINSON      SUNNY     68  29  23 W18       29.68S
HETTINGER      SUNNY     69  34  27 W8        29.73F
$$

 *****  OTHER AIRPORT OBSERVATIONS IN OUR AREA  *****

CITY           SKY/WX    TMP DP  RH WIND       PRES   REMARKS
WALHALLA       FAIR      73  52  46 W9        29.60R
GRAFTON AIRPOR FAIR      73  57  56 W18       29.63S
VALLEY CITY AR FAIR      73  55  53 W16G22    29.70R
CANDO          FAIR      72  52  49 W14       29.65S
CAVALIER APRT  FAIR      75  54  46 W13G18    29.60R
GWINNER        FAIR      75  55  50 SW15      29.69S
SHEYENNE NWR     N/A     75  56  51 W12       29.95S
ROLLA            N/A     68  46  45 SW15      29.63R
 ***** THE ABOVE OBSERVATIONS ARE NON NWS ARE NOT QUALITY
       CONTROLLED AND MAY MIS-REPORT RAIN FOR SNOW...
$$

  *****  WEATHER ACROSS NORTHERN MINNESOTA  *****

CITY           SKY/WX    TMP DP  RH WIND       PRES   REMARKS
FLAG ISLAND    MOSUNNY   66  57  72 SW14G21   29.57S
WARROAD        PTSUNNY   72  63  73 W18G26    29.61R
ROSEAU         SUNNY     72  61  68 W13G22    29.61R
HALLOCK        MOSUNNY   72  63  73 SW14      29.60S
THF RVR FALLS  MOSUNNY   72  57  60 W10       29.66R
BAUDETTE       PTSUNNY   70  60  70 SW12      29.60R
WASKISH        CLOUDY    70  61  73 SW14      29.65R
CROOKSTON      MOSUNNY   73  61  64 W15       29.65R
STEPHEN NDAWN    N/A     72  61  68 W12         N/A
GREENBUSH NDAW   N/A     72  59  64 W13         N/A
$$
  *****  WEATHER ACROSS CENTRAL AND WEST MINNESOTA  *****

CITY           SKY/WX    TMP DP  RH WIND       PRES   REMARKS
FOSSTON        MOSUNNY   70  61  73 SW10      29.68R
BEMIDJI        PTSUNNY   74  58  56 SW14G21   29.67R
PARK RAPIDS    CLOUDY    73  59  61 SW20      29.69R
ELBOW LAKE     PTSUNNY   72  60  66 W17       29.72S
WADENA         PTSUNNY   68  57  68 SW17      29.72R
DETROIT LAKES  MOSUNNY   72  57  60 W8        29.70R
MOORHEAD       CLOUDY    79  46  31 W15       29.67R
FERGUS FALLS   CLOUDY    75  57  53 SW12G18   29.66S
MORRIS MN      MOSUNNY   72  61  68 SW15G21   29.71F
STAPLES        CLOUDY    66  57  72 SW10      29.73S
$$
  *****  WEATHER ELSEWHERE ACROSS MINNESOTA  *****

CITY           SKY/WX    TMP DP  RH WIND       PRES   REMARKS
DULUTH         PTSUNNY   73  54  51 SW15      29.74R
INTRNTL FALLS  CLOUDY    73  59  61 SW8       29.62S
ELY            CLOUDY    73  52  46 SW15G22   29.71R
CLOQUET        CLOUDY    75  52  43 SW14G22   29.74S
WHEATON        CLOUDY    75  61  60 W12       29.72R
BRAINERD       CLOUDY    70  58  65 SW14G23   29.73F
HIBBING        CLOUDY    70  54  56 SW14G24   29.71R
ALEXANDRIA     LGT RAIN  71  59  65 SW17      29.75R
SAINT CLOUD    CLOUDY    73  59  61 SW10      29.73F
MINNEAPOLIS    CLOUDY    75  58  55 SE17G24   29.75F
$$

  *****  WEATHER ACROSS SOUTH DAKOTA  *****

CITY           SKY/WX    TMP DP  RH WIND       PRES   REMARKS
SIOUX FALLS    CLOUDY    68  63  84 SW8       29.77S
BROOKINGS      CLOUDY    66  61  82 SW16      29.76S
WATERTOWN      PTSUNNY   70  59  68 SW14      29.75S
HURON          MOSUNNY   71  56  58 S10       29.74F
SISSETON         N/A     73  56  54 SW14      29.69S
ABERDEEN       MOSUNNY   74  55  51 SW13      29.71S
MITCHELL       PTSUNNY   69  56  62 SW9       29.76S
PIERRE         SUNNY     69  51  52 SW8       29.71F
MOBRIDGE       SUNNY     72  49  44 W5        29.68F
RAPID CITY     SUNNY     69  40  34 VRB5      29.76F
$$

  *****  SOME WEATHER IN NEARBY STATES *****

CITY           SKY/WX    TMP DP  RH WIND       PRES   REMARKS
GLASGOW MT     CLOUDY    56  41  57 W25G37    29.63R
GREAT FALLS MT CLOUDY    53  34  48 SW23G31   29.70R
CHEYENNE WY    MOSUNNY   61  35  37 SW13G20   29.92S
SCOTTSBLUFF NE SUNNY     65  34  31 W22G30    29.83
OMAHA NE       TSTM      72  65  78 S10       29.82R
DES MOINES IA  CLOUDY    73  58  59 S15       29.88S
DAVENPORT IA   CLOUDY    82  45  27 S14G21    29.97F
CHICAGO IL     MOSUNNY   77  43  29 S7        30.01S
EAU CLAIRE WI  MOSUNNY   80  53  39 S17G25    29.85S
LA CROSSE WI   MOSUNNY   82  51  34 S17       29.89F
$$

  *****  SOME NATIONAL WEATHER *****

CITY           SKY/WX    TMP DP  RH WIND       PRES   REMARKS
LA GUARDIA NY  PTSUNNY   74  57  55 NE7       29.90F
RALEIGH NC     CLOUDY    62  56  80 VRB7      29.98S
ATLANTA GA     MOSUNNY   79  47  32 NW16      30.00F
NEW ORLEANS LA PTSUNNY   85  61  44 CALM      30.00F
OKLAHOMA CITY  CLOUDY    72  64  76 S10       29.88R
ALBUQUERQUE NM SUNNY     70  28  21 S8        30.00F
SALT LAKE CITY PTSUNNY   60  36  40 CALM      29.93S
LOS ANGELES CA PTSUNNY   64  50  60 SE6       29.94F
BOISE ID       SUNNY     60  36  40 W6        29.91S
SEATTLE WA     PTSUNNY   59  48  67 SW8       29.95S
$$

*** WEATHER ACROSS MANITOBA...SASKATCHEWAN AND ONTARIO ***
                ***ONTARIO***

CITY           SKY/WX    TMP DP  RH WIND       PRES   REMARKS
GERALDTON      PTSUNNY   77  41  27 S18G36    29.72F
THUNDER BAY    PTSUNNY   77  46  33 S20G29    29.71F
SIOUX LOOKOUT  LGT RAIN  59  57  94 S6        29.59S
TORONTO        MOSUNNY   75  43  31 VRB5      30.03F
BIG TROUT LK   CLOUDY    59  55  88 VRB2      29.40F
PICKLE LAKE    LGT RAIN  70  52  52 S22       29.51R
DRYDEN         PTSUNNY   61  57  88 SW13      29.61R
KENORA         LGT RAIN  63  61  94 S8        29.59R FOG
$$
                *** MANITOBA***

CITY           SKY/WX    TMP DP  RH WIND       PRES   REMARKS
BRANDON        MOSUNNY   73  39  29 W22G29    29.56S
DAUPHIN        SUNNY     72  41  33 W22G31    29.51R
ISLAND LAKE    LGT RAIN  48  48 100 N10G18    29.43R
PILOT MOUND      N/A     72  48  43 W8          N/A
THE PAS        PTSUNNY   55  55 100 S6        29.51S
THOMPSON       CLOUDY    41  39  93 NE14G20   29.62R
WINNIPEG       MOSUNNY   68  59  73 SW12      29.57R
LYNN LAKE      CLOUDY    45  39  81 NE13G21   29.68R
CHURCHILL      CLOUDY    32  30  93 NE24      29.77R WCI  19
GILLAM         CLOUDY    39  34  81 NE14      29.63R
$$
                ***SASKATCHEWAN***

CITY           SKY/WX    TMP DP  RH WIND       PRES   REMARKS
ESTEVAN        PTSUNNY   66  37  34 SW21G28   29.59
KINDERSLEY     LGT RAIN  48  46  93 N8        29.48R
LLOYDMINSTER   CLOUDY    50  46  87 N12G18    29.55R
PRINCE ALBERT  PTSUNNY   59  48  67 CALM      29.49R
REGINA         PTSUNNY   55  37  50 SW17G23   29.55R
YORKTON        PTSUNNY   63  39  42 SW20G26   29.52S
N. BATTLEFORD  PTSUNNY   57  48  72 NE14      29.49S
LA RONGE       DRIZZLE   48  46  93 N13G21    29.59R FOG
SASKATOON      MOSUNNY   57  41  54 S6        29.49R
SWIFT CURRENT  LGT RAIN  46  45  93 SW20G26   29.47S
$$
NOTE: THESE ARE AUTOMATED STATIONS WITH LIMITED QUALITY CONTROL
      "FAIR" INDICATES FEW OR NO CLOUDS BELOW 12,000 FEET WITH NO
      SIGNIFICANT WEATHER AND/OR OBSTRUCTIONS TO VISIBILITY.
      SKY/WX - SKY CONDITION AND SIGNIFICANT WEATHER.
      TMP - AIR TEMPERATURE.    DP   - DEWPOINT TEMPERATURE.
      RH  - RELATIVE HUMIDITY.  PRES - PRESSURE.
      HX  - HEAT INDEX.         WCI  - WIND CHILL INDEX.
$




USA.gov is the U.S. government's official web portal to all federal, state and local government web resources and services.